Stations météo

réclame
Mon MeteoGroup
Pau, France (7610): Température de l'air & dewpoint: 13.11.2017 18:00:00 - 19.11.2017 18:00:00 (CET)Pau, France (7610): Température de l'air 5cm: 13.11.2017 18:00:00 - 19.11.2017 18:00:00 (CET)Pau, France (7610): Température de l'air -20cm & Température de l'air -100cm: 13.11.2017 18:00:00 - 19.11.2017 18:00:00 (CET)Pau, France (7610): Vitesse du vent & gusts: 13.11.2017 18:00:00 - 19.11.2017 18:00:00 (CET)Pau, France (7610): Direction du vent: 13.11.2017 18:00:00 - 19.11.2017 18:00:00 (CET)Pau, France (7610): reduced air pressure: 13.11.2017 18:00:00 - 19.11.2017 18:00:00 (CET)Pau, France (7610): visibility: 13.11.2017 18:00:00 - 19.11.2017 18:00:00 (CET)Pau, France (7610): Ensoleillement: 13.11.2017 18:00:00 - 19.11.2017 18:00:00 (CET)Pau, France (7610): Quantités de précipitations: 13.11.2017 18:00:00 - 19.11.2017 18:00:00 (CET)
Date & Time tt [°C] td [°C] tt 5cm [°C] tt -20cm [°C] tt -100cm [°C] ff [km/h] ff [knt] fx [km/h] fx [knt] dd ppp [hPa] vv [km] sd [min] rr [mm]
19.11.2017 18:00:00 8,6 5,0 3,2 10,5 14,0 0 0 11 6 N 1025,3 10 17 0,0
19.11.2017 17:00:00 11,7 5,8 12,3 10,4 14,1 5 3 12 6 N 1024,6 10 60 0,0
19.11.2017 16:00:00 13,2 6,3 16,9 10,3 14,1 5 3 15 8 - 1024,3 10 60 0,0
19.11.2017 15:00:00 13,7 5,6 18,0 10,3 14,1 3 2 13 7 SSE 1024,6 42 60 0,0
19.11.2017 14:00:00 12,5 5,9 18,1 10,2 14,1 5 3 12 7 - 1025,3 10 60 0,0
19.11.2017 13:00:00 10,7 7,2 17,3 10,2 14,1 5 3 14 8 NNW 1025,8 10 60 0,0
19.11.2017 12:00:00 9,7 7,3 15,0 10,3 14,1 4 2 8 4 - 1026,2 10 60 0,0
19.11.2017 11:00:00 7,1 5,6 8,5 10,3 14,1 2 1 8 4 S 1026,7 2,7 60 0,0
19.11.2017 10:00:00 3,7 3,6 1,5 10,4 14,1 4 2 7 4 - 1026,7 10 60 0,0
19.11.2017 09:00:00 1,1 0,8 -0,1 10,4 14,1 0 0 5 3 N 1026,6 1,9 14 0,0
19.11.2017 08:00:00 0,6 0,3 -0,9 10,5 14,1 0 0 3 2 N 1026,3 0,3 0 0,0
19.11.2017 07:00:00 1,5 1,4 0,1 10,6 14,1 4 2 4 2 SSE 1025,9 0,4 0 0,0
19.11.2017 06:00:00 1,0 0,7 -1,6 10,6 14,1 0 0 7 4 N 1025,7 0,4 0 0,0
19.11.2017 05:00:00 0,5 0,1 -3,6 10,7 14,1 5 3 7 4 SSE 1025,8 1,2 0 0,0
19.11.2017 04:00:00 0,5 0,1 -3,1 10,7 14,1 4 2 5 3 SE 1025,6 0,6 0 0,0
19.11.2017 03:00:00 0,8 0,2 -2,8 10,8 14,1 3 1 4 2 SE 1025,4 2,6 0 0,0
19.11.2017 02:00:00 1,4 1,0 -1,8 10,9 14,1 0 0 4 2 N 1025,4 6 0 0,0
19.11.2017 01:00:00 1,9 1,5 -1,5 10,9 14,1 4 2 6 4 ESE 1025,4 5 0 0,0
19.11.2017 00:00:00 2,5 2,1 -1,3 10,9 14,2 4 2 5 3 E 1025,8 5 0 0,0
18.11.2017 23:00:00 3,1 2,7 -0,9 11,0 14,2 4 2 5 3 ENE 1025,7 5 0 0,0
18.11.2017 22:00:00 3,4 2,8 0,0 11,0 14,2 0 0 5 3 N 1025,8 3,6 0 0,0
18.11.2017 21:00:00 4,1 3,4 -0,2 11,0 14,2 2 1 3 2 SE 1025,6 0,3 0 0,0
18.11.2017 20:00:00 5,1 4,2 -0,2 10,9 14,2 0 0 3 2 N 1025,2 7 0 0,0
18.11.2017 19:00:00 6,6 5,2 0,4 10,9 14,2 0 0 9 5 N 1025,0 10 0 0,0
18.11.2017 18:00:00 8,4 6,4 1,9 10,8 14,2 5 3 9 5 N 1024,7 15 16 0,0
18.11.2017 17:00:00 11,1 7,2 11,9 10,7 14,2 9 5 12 7 NNW 1024,3 20 60 0,0
18.11.2017 16:00:00 12,7 7,4 17,0 10,6 14,2 8 4 18 10 NNW 1023,8 10 60 0,0
18.11.2017 15:00:00 13,1 7,7 14,0 10,5 14,2 5 3 12 7 NW 1023,8 10 43 0,0
18.11.2017 14:00:00 12,2 7,1 13,9 10,5 14,2 5 3 13 7 NNW 1024,2 10 50 0,0
18.11.2017 13:00:00 11,7 7,8 12,9 10,5 14,3 5 3 14 7 NNW 1024,6 10 34 0,0
18.11.2017 12:00:00 11,0 8,0 13,7 10,5 14,2 5 3 10 5 - 1024,9 10 44 0,0
18.11.2017 11:00:00 11,3 7,4 12,7 10,6 14,3 0 0 5 3 N 1024,9 10 60 0,0
18.11.2017 10:00:00 8,6 6,2 7,3 10,6 14,3 4 2 8 4 - 1025,1 10 60 0,0
18.11.2017 09:00:00 5,4 5,0 1,8 10,6 14,3 5 3 8 4 SE 1024,9 7 32 0,0
18.11.2017 08:00:00 4,3 3,9 2,3 10,7 14,3 9 5 10 5 SSE 1024,5 4,6 0 0,0
18.11.2017 07:00:00 4,8 4,5 2,0 10,7 14,3 5 3 9 5 ESE 1024,3 6 0 0,0
18.11.2017 06:00:00 4,2 3,8 0,3 10,8 14,3 6 3 10 5 ESE 1024,3 4,0 0 0,0
18.11.2017 05:00:00 4,5 4,1 0,8 10,8 14,3 5 3 8 5 SE 1024,5 3,7 0 0,0
18.11.2017 04:00:00 4,8 4,2 1,7 10,8 14,3 4 2 6 4 E 1024,2 5 0 0,0
18.11.2017 03:00:00 5,5 5,1 3,8 10,9 14,3 5 3 7 4 ESE 1024,3 4,8 0 0,0
18.11.2017 02:00:00 4,5 3,9 2,0 10,9 14,3 4 2 8 5 ESE 1024,4 7 0 0,0
18.11.2017 01:00:00 5,1 4,7 0,5 10,9 14,3 6 4 7 4 SE 1024,4 4,5 0 0,0
18.11.2017 00:00:00 3,9 3,2 0,7 11,0 14,3 8 4 10 5 SE 1024,5 6 0 0,0
17.11.2017 23:00:00 4,8 4,1 1,4 10,9 14,3 5 3 9 5 SE 1024,4 7 0 0,0
17.11.2017 22:00:00 5,0 4,1 1,8 11,0 14,3 4 2 8 4 E 1024,3 8 0 0,0
17.11.2017 21:00:00 5,2 4,2 2,0 11,0 14,4 2 1 6 4 ESE 1024,2 10 0 0,0
17.11.2017 20:00:00 5,9 4,5 2,8 10,9 14,4 5 3 7 4 SE 1024,4 10 0 0,0
17.11.2017 19:00:00 7,4 5,2 2,5 10,8 14,4 4 2 6 4 SE 1023,8 10 0 0,0
17.11.2017 18:00:00 9,0 4,8 3,2 10,7 14,4 5 3 9 5 WNW 1023,4 10 18 0,0
17.11.2017 17:00:00 11,6 5,7 11,2 10,6 14,4 5 3 13 7 WNW 1022,8 10 60 0,0
17.11.2017 16:00:00 13,4 6,3 16,2 10,6 14,4 9 5 14 7 WNW 1022,6 10 60 0,0
17.11.2017 15:00:00 14,4 5,5 18,7 10,5 14,4 5 3 13 7 W 1022,4 10 60 0,0
17.11.2017 14:00:00 14,0 6,1 19,3 10,5 14,4 8 4 14 8 NW 1022,9 10 60 0,0
17.11.2017 13:00:00 13,5 7,5 19,0 10,4 14,4 5 3 10 5 NW 1023,2 20 60 0,0
17.11.2017 12:00:00 12,3 7,2 15,7 10,5 14,4 4 2 9 5 - 1023,8 10 60 0,0
17.11.2017 11:00:00 10,0 6,5 5,8 10,5 14,4 2 1 5 3 - 1024,3 10 60 0,0
17.11.2017 10:00:00 5,2 4,3 4,9 10,6 14,5 4 2 8 4 ESE 1024,7 10 1 0,0
17.11.2017 09:00:00 4,2 3,6 0,7 10,6 14,5 4 2 10 6 SE 1024,8 10 4 0,0
17.11.2017 08:00:00 2,5 2,1 -0,7 10,7 14,5 8 4 10 6 SE 1024,4 10 0 0,0
17.11.2017 07:00:00 2,1 1,5 -1,0 10,7 14,5 5 3 10 5 SE 1024,2 10 0 0,0
17.11.2017 06:00:00 2,5 2,1 -0,9 10,8 14,5 9 5 11 6 ESE 1024,0 10 0 0,0
17.11.2017 05:00:00 1,9 1,3 -1,1 10,8 14,5 3 2 10 5 ESE 1024,4 4,5 0 0,0
17.11.2017 04:00:00 2,5 2,1 -0,6 10,9 14,5 5 3 9 5 SE 1024,0 7 0 0,0
17.11.2017 03:00:00 2,8 2,4 -0,7 10,9 14,5 8 4 8 5 ESE 1024,0 7 0 0,0
17.11.2017 02:00:00 2,6 2,0 -1,2 11,0 14,6 4 2 5 3 SE 1024,1 3,2 0 0,0
17.11.2017 01:00:00 3,5 2,9 -0,6 11,0 14,5 2 1 4 2 SE 1024,3 8 0 0,0
17.11.2017 00:00:00 4,1 3,4 0,1 11,0 14,6 4 2 7 4 SSE 1024,1 8 0 0,0
16.11.2017 23:00:00 4,4 3,5 0,2 11,0 14,5 8 4 10 5 ESE 1023,9 10 0 0,0
16.11.2017 22:00:00 4,7 4,0 1,5 11,1 14,6 5 3 9 5 ESE 1024,1 10 0 0,0
16.11.2017 21:00:00 5,3 4,4 1,6 11,0 14,6 0 0 6 3 N 1024,0 10 0 0,0
16.11.2017 20:00:00 5,8 4,4 2,4 10,9 14,6 2 1 4 2 E 1024,0 10 0 0,0
16.11.2017 19:00:00 7,4 5,0 2,1 10,9 14,6 0 0 5 3 N 1023,5 37 0 0,0
16.11.2017 18:00:00 9,9 4,7 2,9 10,7 14,6 4 2 11 6 NW 1022,8 10 7 0,0
16.11.2017 17:00:00 12,6 6,2 13,4 10,7 14,6 9 5 14 8 NW 1022,2 10 60 0,0
16.11.2017 16:00:00 13,8 5,4 15,7 10,6 14,6 11 6 22 12 NW 1021,6 10 60 0,0
16.11.2017 15:00:00 14,8 5,0 19,4 10,5 14,6 8 4 13 7 NW 1021,1 46 60 0,0
16.11.2017 14:00:00 14,5 6,8 20,9 10,4 14,6 5 3 10 5 NW 1021,2 32 60 0,0
16.11.2017 13:00:00 13,3 6,6 18,6 10,4 14,6 5 3 10 5 - 1021,6 10 60 0,0
16.11.2017 12:00:00 11,9 7,4 16,9 10,5 14,6 8 4 11 6 - 1022,2 10 60 0,0
16.11.2017 11:00:00 10,1 5,5 12,1 10,5 14,6 0 0 10 5 N 1022,5 10 60 0,0
16.11.2017 10:00:00 7,0 4,3 4,9 10,6 14,6 8 4 11 6 SSE 1022,3 10 60 0,0
16.11.2017 09:00:00 3,0 2,3 -1,9 10,7 14,7 9 5 11 6 SE 1022,6 10 35 0,0
16.11.2017 08:00:00 0,2 -0,2 -2,4 10,7 14,7 5 3 9 5 ESE 1022,2 9 0 0,0
16.11.2017 07:00:00 0,4 0,0 -2,9 10,8 14,7 5 3 13 7 SSE 1021,8 6 0 0,0
16.11.2017 06:00:00 0,0 -0,6 -2,8 10,8 14,7 2 1 6 4 E 1021,6 9 0 0,0
16.11.2017 05:00:00 1,0 0,4 -1,7 10,9 14,7 4 2 9 5 E 1021,0 9 0 0,0
16.11.2017 04:00:00 1,2 0,6 -1,0 10,9 14,7 5 3 8 5 ESE 1021,3 9 0 0,0
16.11.2017 03:00:00 1,6 1,2 -2,2 11,0 14,7 5 3 11 6 ESE 1021,8 9 0 0,0
16.11.2017 02:00:00 1,4 0,8 -1,3 11,1 14,7 5 3 10 5 ESE 1022,0 6 0 0,0
16.11.2017 01:00:00 1,9 1,5 -1,5 11,1 14,7 5 3 8 4 SE 1022,0 6 0 0,0
16.11.2017 00:00:00 1,6 1,0 -1,7 11,1 14,7 4 2 6 3 E 1021,9 7 0 0,0
15.11.2017 23:00:00 2,3 1,6 -1,4 11,2 14,7 4 2 5 3 SE 1022,0 8 0 0,0
15.11.2017 22:00:00 3,1 2,4 -1,1 11,2 14,7 2 1 9 5 SE 1022,0 10 0 0,0
15.11.2017 21:00:00 4,4 3,2 -0,7 11,2 14,7 8 4 9 5 SSE 1021,8 10 0 0,0
15.11.2017 20:00:00 4,7 3,5 -0,3 11,1 14,7 4 2 4 2 NNE 1022,0 10 0 0,0
15.11.2017 19:00:00 6,2 4,4 1,2 11,1 14,8 4 2 9 5 - 1021,4 10 0 0,0
15.11.2017 18:00:00 7,5 4,3 2,8 11,0 14,8 8 4 11 6 WNW 1020,9 10 20 0,0
15.11.2017 17:00:00 10,6 5,4 12,7 10,9 14,8 8 4 11 6 NW 1020,4 10 60 0,0
15.11.2017 16:00:00 11,3 5,0 13,9 10,9 14,8 5 3 15 8 - 1020,7 10 60 0,0
15.11.2017 15:00:00 10,8 5,1 14,3 10,8 14,8 5 3 10 6 NNW 1020,7 10 60 0,0
15.11.2017 14:00:00 10,5 4,6 14,6 10,8 14,8 5 3 14 8 N 1021,1 10 60 0,0
15.11.2017 13:00:00 10,9 3,7 16,3 10,8 14,8 2 1 13 7 - 1021,8 10 60 0,0
15.11.2017 12:00:00 9,2 3,4 14,3 10,9 14,8 4 2 8 4 - 1022,9 10 60 0,0
15.11.2017 11:00:00 6,0 3,0 6,2 10,9 14,8 0 0 4 2 N 1023,6 10 58 0,0
15.11.2017 10:00:00 2,8 1,8 -0,2 11,0 14,8 0 0 8 4 N 1023,9 10 55 0,0
15.11.2017 09:00:00 -0,2 -1,0 -1,6 11,1 14,8 2 1 9 5 - 1024,4 10 3 0,0
15.11.2017 08:00:00 -0,2 -0,8 -3,2 11,2 14,8 5 3 9 5 SE 1024,2 10 0 0,0
15.11.2017 07:00:00 -1,0 -1,6 -3,5 11,3 14,8 4 2 6 3 ESE 1024,4 10 0 0,0
15.11.2017 06:00:00 -1,0 -1,7 -3,2 11,3 14,8 0 0 5 3 N 1024,1 7 0 0,0
15.11.2017 05:00:00 -0,7 -1,4 -3,0 11,4 14,8 2 1 6 3 SSE 1024,3 10 0 0,0
15.11.2017 04:00:00 -0,8 -1,8 -2,9 11,5 14,8 2 1 6 4 - 1024,4 10 0 0,0
15.11.2017 03:00:00 0,7 -0,5 -2,0 11,5 14,8 0 0 12 7 N 1024,8 10 0 0,0
15.11.2017 02:00:00 1,0 0,1 -2,9 11,6 14,8 5 3 10 5 E 1024,9 10 0 0,0
15.11.2017 01:00:00 0,3 -0,4 -2,9 11,7 14,8 4 2 10 5 ESE 1025,9 10 0 0,0
15.11.2017 00:00:00 1,2 0,5 -2,1 11,7 14,9 5 3 9 5 ESE 1026,2 10 0 0,0
14.11.2017 23:00:00 1,3 0,6 -2,0 11,8 14,9 0 0 6 3 N 1026,6 10 0 0,0
14.11.2017 22:00:00 1,8 1,1 -1,7 11,8 14,9 0 0 5 3 N 1026,6 10 0 0,0
14.11.2017 21:00:00 2,3 1,1 -1,3 11,8 14,9 2 1 6 3 SSE 1026,5 10 0 0,0
14.11.2017 20:00:00 3,4 1,6 0,7 11,8 14,8 4 2 9 5 E 1026,5 18 0 0,0
14.11.2017 19:00:00 5,1 2,3 0,7 11,7 14,9 4 2 12 7 - 1026,2 10 0 0,0
14.11.2017 18:00:00 6,9 2,4 3,9 11,7 14,9 9 5 15 8 NNE 1025,7 10 23 0,0
14.11.2017 17:00:00 9,4 2,5 9,6 11,6 14,9 11 6 16 9 NE 1025,2 10 60 0,0
14.11.2017 16:00:00 10,3 2,6 13,8 11,6 14,9 11 6 23 12 NNE 1025,1 10 60 0,0
14.11.2017 15:00:00 10,6 1,9 14,9 11,6 14,9 13 7 23 12 NE 1025,4 10 60 0,0
14.11.2017 14:00:00 10,4 3,0 15,0 11,6 14,8 9 5 20 11 NE 1025,8 10 60 0,0
14.11.2017 13:00:00 9,9 2,5 13,9 11,6 14,9 13 7 22 12 ENE 1026,6 10 60 0,0
14.11.2017 12:00:00 9,4 3,6 14,1 11,6 14,9 10 5 18 10 NE 1027,3 54 60 0,0
14.11.2017 11:00:00 7,8 3,8 11,3 11,7 14,9 0 0 8 5 N 1027,7 10 60 0,0
14.11.2017 10:00:00 5,0 2,0 3,5 11,8 14,9 5 3 7 4 - 1028,1 10 60 0,0
14.11.2017 09:00:00 1,0 0,6 -3,0 11,9 14,9 4 2 6 3 - 1028,2 10 38 0,0
14.11.2017 08:00:00 -0,5 -1,1 -3,0 11,9 14,9 2 1 6 3 ENE 1027,8 10 0 0,0
14.11.2017 07:00:00 -0,2 -0,8 -3,4 12,0 14,8 4 2 6 3 - 1027,5 10 0 0,0
14.11.2017 06:00:00 0,0 -0,9 -2,8 12,1 14,9 4 2 6 3 SE 1027,1 10 0 0,0
14.11.2017 05:00:00 0,5 -0,2 -2,4 12,2 14,9 4 2 9 5 - 1027,3 10 0 0,0
14.11.2017 04:00:00 0,5 -0,4 -2,5 12,3 14,9 5 3 7 4 SE 1027,5 10 0 0,0
14.11.2017 03:00:00 1,0 0,1 -1,8 12,4 14,9 2 1 6 4 ESE 1027,8 10 0 0,0
14.11.2017 02:00:00 1,2 0,3 -1,5 12,4 14,9 5 3 7 4 ESE 1027,7 10 0 0,0
14.11.2017 01:00:00 1,8 0,9 -1,0 12,5 14,9 2 1 7 4 ESE 1027,8 13 0 0,0
14.11.2017 00:00:00 1,8 0,9 -1,1 12,6 14,9 2 1 5 3 ESE 1028,1 13 0 0,0
13.11.2017 23:00:00 2,6 1,7 -0,2 12,6 14,9 4 2 5 3 ESE 1028,1 10 0 0,0
13.11.2017 22:00:00 3,6 2,1 1,1 12,6 14,9 4 2 9 5 - 1027,8 10 0 0,0
13.11.2017 21:00:00 3,2 2,5 0,5 12,7 14,9 4 2 8 4 - 1027,6 10 0 0,0
13.11.2017 20:00:00 3,4 2,4 0,5 12,7 14,9 2 1 6 3 - 1027,2 10 0 0,0
13.11.2017 19:00:00 4,5 2,8 0,9 12,6 14,9 4 2 5 3 E 1027,0 10 0 0,0
13.11.2017 18:00:00 6,0 2,3 2,0 12,6 14,9 5 3 10 5 NW 1026,1 10 14 0,0

tt = Température de l'air
td = dewpoint
tt 5cm = Température de l'air 5cm
tt -20cm = Température de l'air -20cm
tt -100cm = Température de l'air -100cm
ff = Vitesse du vent
fx = gusts
dd = Direction du vent
ppp = reduced air pressure
vv = visibility
sd = Ensoleillement
rr = Quantités de précipitations

stations d'obs. à proximité